OpenBCM V1.08-5-g2f4a (Linux)

Packet Radio Mailbox

IZ3LSV

[San Dona' di P. JN]

 Login: GUEST





  
I0OJJ  > KEPS     26.10.25 01:26l 316 Lines 15004 Bytes #170 (0) @ AMSAT
BID : ORB25299.1
Read: GUEST
Subj: 2Line Orbital Elements 25299.AMSAT
Path: IZ3LSV<IK6IHL<IK7NXU<HB9ON<DK0WUE<PI8ZTM<IR0AAB<I0OJJ
Sent: 251026/0021z @:I0OJJ.ITA.EU [Rome] obcm1.08-11-2-gbfe9
From: I0OJJ @ I0OJJ.ITA.EU (Gustavo)
To:   KEPS @ AMSAT
X-Info: This message was generated automatically


QST de W1STR

AMSAT Orbital Elements for Amateur Satellites in TLE Format
From Orbital Analysis Office
New England Sci-Tech STEM Education Center
Natick MA October 26, 2025
To all radio amateurs


These element sets describe the orbits of various satellites 
in use by the amateur radio community. For details see:
www.amsat.org/keplerian-elements-formats/

A daily update of element sets is available at:
www.amsat.org/tle/daily-bulletin.txt
or without bulletin text:
www.amsat.org/tle/dailytle.txt


AO-07
1 07530U 74089B   25298.80137926 -.00000040  00000-0  38860-4 0  9999
2 07530 101.9984 304.5599 0012014 217.7375 315.7837 12.53692748331147
UO-11
1 14781U 84021B   25298.44201247  .00002749  00000-0  29141-3 0  9998
2 14781  97.7738 262.2487 0006251 234.0123 126.0515 14.89896395222169
AO-27
1 22825U 93061C   25298.46887012  .00000193  00000-0  90614-4 0  9997
2 22825  98.7211   0.6063 0009418  71.9994 288.2214 14.30850374673430
FO-29
1 24278U 96046B   25298.41986986  .00000038  00000-0  75996-4 0  9996
2 24278  98.5511 174.0291 0349756 345.5580  13.5760 13.53258132441411
NOAA-15
1 25338U 98030A   25298.52049821  .00000201  00000-0  10034-3 0  9992
2 25338  98.5272 320.2869 0009454 320.2637  39.7851 14.27041626427820
GO-32
1 25397U 98043D   25298.44773744  .00000147  00000-0  83880-4 0  9999
2 25397  98.9877 280.5547 0001744 135.3843 224.7476 14.24356647417916
ISS
1 25544U 98067A   25298.49093667  .00017920  00000-0  32735-3 0  9992
2 25544  51.6347  21.3497 0004524 336.3747  23.7033 15.49457187535374
NO-44
1 26931U 01043C   25298.25936936  .00000265  00000-0  12990-3 0  9995
2 26931  67.0486 131.8475 0007145 272.7858  87.2426 14.31812738256818
SO-50
1 27607U 02058C   25298.02571071  .00001794  00000-0  23425-3 0  9996
2 27607  64.5507 136.1269 0069059 305.6264  53.8421 14.82125201229590
CO-55
1 27844U 03031E   25298.46384780  .00000527  00000-0  24809-3 0  9998
2 27844  98.6784 304.9860 0010252 142.1369 218.0532 14.24118656158266
CO-57
1 27848U 03031J   25298.47735141  .00000443  00000-0  21418-3 0  9994
2 27848  98.6813 304.8992 0009856 158.7969 201.3620 14.23435880157986
RS-22
1 27939U 03042A   25298.54974615  .00002018  00000-0  32402-3 0  9991
2 27939  98.3378 111.4758 0010356 295.4880 157.0564 14.72762391181008
CO-58
1 28895U 05043F   25298.37477756  .00003068  00000-0  50089-3 0  9998
2 28895  98.2696  84.6555 0013599 227.4411 132.5648 14.71600613 67208
CO-65
1 32785U 08021C   25298.88560058  .00008582  00000-0  58952-3 0  9997
2 32785  97.8027 271.3411 0011349 101.6015 258.6486 15.06161567949886
CO-66
1 32791U 08021J   25298.84480219  .00021510  00000-0  91609-3 0  9992
2 32791  97.7422 282.4342 0006049  66.8797 293.3076 15.22982669951502
RS-30
1 32953U 08025A   25298.82580330  .00000020  00000-0  68052-4 0  9999
2 32953  82.5006 141.2270 0019907 102.4878 257.8430 12.43169775790570
NOAA-19
1 33591U 09005A   25298.81210345  .00000084  00000-0  68880-4 0  9991
2 33591  98.9825   4.1951 0013261 337.1458  22.9122 14.13420971861373
SRMSAT
1 37841U 11058D   25298.68304213  .00000513  00000-0  13462-3 0  9999
2 37841  19.9728  38.7937 0011741 143.3023   7.4856 14.11486536724640
ZACUBE-1
1 39417U 13066B   25298.85411110  .00008036  00000-0  66797-3 0  9992
2 39417  97.7989 255.3769 0041430 312.3986  47.3733 14.98317542645608
Delfi-N3xt
1 39428U 13066N   25298.76681913  .00011693  00000-0  11257-2 0  9997
2 39428  97.8300 215.0012 0078911 264.9833  94.2373 14.90770699639645
GOMX-1
1 39430U 13066Q   25298.79425387  .00002560  00000-0  39612-3 0  9993
2 39430  97.6646 148.9179 0132367 109.5404 252.0152 14.68277336635506
LO-74
1 39440U 13066AA  25298.84111722  .00006599  00000-0  64541-3 0  9990
2 39440  97.8630 242.6232 0062416  83.5500 277.2820 14.91198074642033
AO-73
1 39444U 13066AE  25298.86330391  .00011887  00000-0  83247-3 0  9991
2 39444  97.7987 261.6136 0037884 280.2672  79.4283 15.04809413644366
DTUSAT-2
1 40030U 14033W   25298.72954523  .00011278  00000-0  68629-3 0  9994
2 40030  98.0722 277.5469 0007232 327.3333  32.7447 15.10588535617232
EO-80
1 40032U 14033Y   25298.87482316  .00009769  00000-0  59403-3 0  9990
2 40032  98.0607 277.1616 0005867 248.1443 111.9162 15.10664817617232
LILACSAT-2
1 40908U 15049K   25298.83391277  .00019649  00000-0  45016-3 0  9994
2 40908  97.4972 322.7966 0009335  35.0357 325.1502 15.42765038559513
IO-86
1 40931U 15052B   25151.18580175  .00001241  00000-0  78118-4 0  9996
2 40931   6.0006  24.0987 0012733 338.8432  21.1169 14.78805930523159
Horyu-4
1 41340U 16012D   25298.64284123  .00050037  00000-0  10092-2 0  9997
2 41340  30.9958 278.8396 0003242  91.8924 268.2095 15.45264789534099
Lapan A3
1 41603U 16040E   25298.86048862  .00004791  00000-0  16207-3 0  9993
2 41603  97.1428 298.1773 0012293 128.5674 231.6672 15.30999965518933
CAS-2T
1 41847U 16066G   25298.74449368  .00002449  00000-0  35188-3 0  9991
2 41847  98.4081  11.9542 0345466 120.2788 243.3067 14.43949188470955
TechnoSat
1 42829U 17042E   25298.53202419  .00006453  00000-0  48388-3 0  9993
2 42829  97.4042 100.8410 0018711 172.6079 187.5426 15.02851057451431
AO-91
1 43017U 17073E   25298.14266288  .00012171  00000-0  58652-3 0  9997
2 43017  97.5002 165.4836 0166789  57.3353 304.3841 15.07350906429910
S-Net D
1 43186U 18014G   25298.70229169  .00007590  00000-0  42718-3 0  9994
2 43186  97.5476 200.2098 0010689 104.9204 255.3211 15.13479235423252
S-Net B
1 43187U 18014H   25298.70959332  .00007558  00000-0  42562-3 0  9998
2 43187  97.5484 200.1954 0011461 101.3327 258.9193 15.13456586423250
S-Net A
1 43188U 18014J   25298.70218948  .00007671  00000-0  43162-3 0  9993
2 43188  97.5490 200.3570 0011300 101.8315 258.4184 15.13484569423255
S-Net C
1 43189U 18014K   25298.71238603  .00007654  00000-0  43086-3 0  9991
2 43189  97.5508 200.4048 0012939  96.0328 264.2378 15.13450459421805
Ten-Koh
1 43677U 18084G   25298.46574836  .00003864  00000-0  30473-3 0  9998
2 43677  98.0695 116.1785 0009284 163.1698 196.9834 15.01347413380923
PO-101
1 43678U 18084H   25298.53210795  .00004244  00000-0  35444-3 0  9994
2 43678  98.1097 120.0528 0007733 169.4470 190.6915 14.99093843381040
QO-100
1 43700U 18090A   25298.48018542  .00000157  00000-0  00000+0 0  9992
2 43700   0.0089 193.4074 0001899  59.1182 340.2652  1.00273605 25322
MinXSS-2
1 43758U 18099A   25298.77487088  .00028683  00000-0  94704-3 0  9993
2 43758  97.4856   5.5929 0010666  34.6081 325.5852 15.31308525378077
AO-95
1 43770U 18099N   25298.70398137  .00015612  00000-0  71995-3 0  9991
2 43770  97.4742 355.3826 0011403  92.5119 267.7422 15.20282327377519
SNUSat 2
1 43782U 18099AA  25298.59304247  .00011259  00000-0  57118-3 0  9994
2 43782  97.4424 350.8496 0012311  42.2187 317.9992 15.17029821377400
SnugLite
1 43784U 18099AC  25298.70291766  .00016027  00000-0  73226-3 0  9996
2 43784  97.4234 350.8478 0004131  53.4256 306.7359 15.20644480377606
ITASat 1
1 43786U 18099AE  25298.69765987  .00010788  00000-0  57901-3 0  9997
2 43786  97.4392 350.0288 0015207  89.4533 270.8442 15.15014063377355
EAGLET 1
1 43790U 18099AJ  25298.61931029  .00006863  00000-0  42035-3 0  9997
2 43790  97.4594 349.3989 0013198  77.7552 282.5155 15.10424522376890
ESEO
1 43792U 18099AL  25298.69177875  .00001978  00000-0  15031-3 0  9996
2 43792  97.4294 340.8278 0013696  56.5998 303.6536 15.03198970376567
JO-97
1 43803U 18099AX  25298.80890348  .00017856  00000-0  72269-3 0  9997
2 43803  97.4489 356.8394 0007308  32.4891 327.6795 15.24730015377806
Suomi 100
1 43804U 18099AY  25298.74100247  .00015301  00000-0  67896-3 0  9996
2 43804  97.4552 355.6190 0012051  33.0177 327.1809 15.21601180377688
ISAT
1 43879U 18111D   25298.31087352  .00043995  00000-0  12031-2 0  9997
2 43879  97.5885 216.2589 0010900  75.8261 284.4193 15.37180967374795
UWE-4
1 43880U 18111E   25298.25864075  .00030391  00000-0  10043-2 0  9994
2 43880  97.5824 213.5694 0013610  85.6941 274.5854 15.31233878374655
Sparrow
1 43881U 18111F   25298.22892148  .00045849  00000-0  11828-2 0  9990
2 43881  97.6058 219.6563 0009441 100.1545 260.0765 15.38985790374899
Prox-1
1 44339U 19036A   25298.16890451  .00017826  00000-0  20881-2 0  9997
2 44339  23.9961 236.0025 0007304 205.5961 154.4176 14.83385062338445
Taurus 1
1 44530U 19059C   25298.87324524  .00011000  00000-0  19246-2 0  9997
2 44530  98.6221  85.1395 0008724 324.5328  35.5294 14.68010399324216
Duchifat 3
1 44854U 19089C   25298.80333794  .00185996  00000-0  15089-2 0  9998
2 44854  36.9321 186.0599 0009931 294.0727  65.8997 15.69175934324533
TO-108
1 44881U 19093C   25298.82523118  .00001519  00000-0  17993-3 0  9991
2 44881  97.7807  11.5208 0014718 133.7818 226.4618 14.85936942316600
FloripaSat 1
1 44885U 19093G   25298.83929417  .00009089  00000-0  72820-3 0  9998
2 44885  97.8078  26.8319 0011368 118.5430 241.6939 15.00318997317468
RS-44
1 44909U 19096E   25298.62062553  .00000020  00000-0  41052-4 0  9994
2 44909  82.5186 135.5886 0217087 333.0723  25.9242 12.79744922272349
SALSAT
1 46495U 20068K   25298.85197027  .00011525  00000-0  46192-3 0  9998
2 46495  97.8760 283.5928 0012453  49.6760 310.5563 15.25132657279582
CSS (TIANHE-1)
1 48274U 21035A   25298.43177446  .00038503  00000-0  45249-3 0  9994
2 48274  41.4668 310.1762 0011170 280.4087  79.5493 15.60623758256480
TUBIN
1 48900U 21059X   25298.53118103  .00136338  00000-0  72786-3 0  9993
2 48900  97.6717 120.6042 0001751  77.5420 282.6043 15.79999611241654
CUTE
1 49263U 21088D   25298.49594838  .00027947  00000-0  42429-3 0  9992
2 49263  97.4391  19.3284 0006755  90.6577 269.5451 15.54534733225790
